Flag for Macedonia, Republic of Weather past 2 weeks in Skopje, Macedonia, Republic of

Now
61 °F

Partly cloudy.


Feels Like: 61 °F
Forecast: 62 / 83 °F
Wind: No wind

Location: Skopje-Petrovec

Current Time: Jul 23, 2014 at 5:27:00 AM

Latest Report: Jul 23, 2014 at 5:00 AM


Visibility: N/A

Pressure: 29.77 "Hg

Humidity: 94%

Dew point: 59 °F

Location of SkopjeLocation

Historic Weather in Skopje — Graph

°F

Skopje temperature yesterday

Maximum temperature yesterday: 77 °F (at 2:00 PM)
Minimum temperature yesterday: 66 °F (at 5:30 AM)
Average temperature yesterday: 71 °F

Past Weeks' High & Low Weather Summary

 TemperatureHumidityPressure
High95 °F (Jul 8, 2:30 PM)100% (Jul 14, 6:00 AM)30.04 "Hg (Jul 14, 6:00 AM)
Low54 °F (Jul 10, 5:30 AM)18% (Jul 9, 4:00 PM)29.62 "Hg (Jul 10, 5:30 PM)
Average73 °F63%29.88 "Hg
* Reported Jul 8 4:00 AM — Jul 23 4:00 AM, Skopje, Weather by CustomWeather, © 2014

Note: Actual official high and low records may vary slightly from our data, if they occured in-between our weather recording intervals... More about our weather records

Advertising

Skopje weather history for previous 24 hours

 ConditionsComfort  
Time TempWeatherWind HumidityBarometerVisibility
4:00 AM
Jul 23
61 °FPassing clouds.No wind94%29.77 "HgN/A
3:30 AM61 °FPassing clouds.No wind94%29.77 "HgN/A
3:00 AM61 °FPassing clouds.2 mph94%29.80 "HgN/A
2:30 AM61 °FPassing clouds.2 mph94%29.80 "HgN/A
1:00 AM61 °FPassing clouds.2 mph94%29.80 "HgN/A
7:00 PM
Jul 22
66 °FBroken clouds.2 mph88%29.80 "HgN/A
6:30 PM66 °FThunderstorms. Broken clouds.5 mph88%29.80 "HgN/A
6:00 PM70 °FThunderstorms. Broken clouds.6 mph83%29.80 "HgN/A
5:30 PM72 °FThunderstorms. Broken clouds.2 mph83%29.80 "HgN/A
5:00 PM73 °FLight rain. Broken clouds.3 mph74%29.80 "HgN/A
4:30 PM75 °FLight rain. Broken clouds.2 mph65%29.77 "HgN/A
4:00 PM77 °FBroken clouds.3 mph65%29.77 "HgN/A
3:30 PM75 °FBroken clouds.9 mph69%29.80 "HgN/A
3:00 PM75 °FLight rain. Broken clouds.13 mph69%29.80 "HgN/A
2:30 PM75 °FBroken clouds.13 mph65%29.80 "HgN/A
2:00 PM77 °FBroken clouds.10 mph61%29.80 "HgN/A
1:30 PM75 °FBroken clouds.6 mph74%29.80 "HgN/A
1:00 PM73 °FBroken clouds.3 mph83%29.83 "HgN/A
12:30 PM72 °FBroken clouds.1 mph83%29.83 "HgN/A
12:00 PM70 °FBroken clouds.2 mph94%29.86 "HgN/A
11:30 AM70 °FLight rain. Partly sunny.3 mph94%29.83 "HgN/A
11:00 AM70 °FThunderstorms. Partly sunny.No wind88%29.83 "HgN/A
10:30 AM72 °FThunderstorms. Broken clouds.2 mph83%29.83 "HgN/A
10:00 AM72 °FThundershowers. Broken clouds.2 mph88%29.80 "HgN/A
9:30 AM70 °FRain showers. Broken clouds.3 mph88%29.83 "HgN/A
9:00 AM68 °FThunderstorms. Broken clouds.3 mph94%29.83 "HgN/A
8:30 AM72 °FThunderstorms. Broken clouds.6 mph83%29.83 "HgN/A
8:00 AM72 °FThundershowers. Partly sunny.2 mph78%29.83 "HgN/A
7:30 AM72 °FThundershowers. Passing clouds.3 mph73%29.83 "HgN/A
7:00 AM70 °FPassing clouds.3 mph83%29.83 "HgN/A
6:30 AM66 °FPassing clouds.5 mph94%29.83 "HgN/A
6:00 AM66 °FPassing clouds.6 mph94%29.83 "HgN/A
5:30 AM66 °FPassing clouds.5 mph88%29.83 "HgN/A
5:00 AM68 °FPassing clouds.5 mph83%29.83 "HgN/A
Weather by CustomWeather, © 2014

See weather overviewHow to use our weather pages